STARLINK-34448 (64291 NORAD) Tracking and Keplerian Element Data

This shows tracking and keplerian element data for the satellite.

Feedback or suggestion? Click here.




ElementValue
Catalog64291
NameSTARLINK-34448
Epoch Orbit3081
Epoch Day353.41323785
Epoch Year2025
RAAN36.8772
Inclination70.0016
Eccentricity0.0003476
Argument of Perigee269.909
Mean Anonmoly90.1671
Mean Motion14.98336938
Decay Rate3.453E-05
L11 64291U 25123A 25353.41323785 .00003453 00000+0 29694-3 0 9993
L22 64291 70.0016 36.8772 0003476 269.9090 90.1671 14.98336938 30816



Live tracking and technical data element details for STARLINK-34448 (NORAD 64291). STARLINK-34448 can be tracked NOW for your location showing map with azimuth and elevation plus other details from your city location.







IsCatalogInMostPopularTable: catalog: 64291, numindb: 5
Update: records affected: 1



GetName: 64291 STARLINK-34448

Hit Count: updated at: Tue, 10 Feb 2026 03:44:52 GMT